TimeCDT,TemperatureF,Dew PointF,Humidity,Sea Level PressureIn,VisibilityMPH,Wind Direction,Wind SpeedMPH,Gust SpeedMPH,PrecipitationIn,Events,Conditions,WindDirDegrees,DateUTC
12:54 AM,33.1,25.0,72,30.15,10.0,Calm,Calm,-,N/A,,Partly Cloudy,0,2012-10-07 05:54:00
1:54 AM,28.9,25.0,85,30.15,10.0,Calm,Calm,-,N/A,,Clear,0,2012-10-07 06:54:00
2:54 AM,30.0,26.1,85,30.13,10.0,WNW,3.5,-,N/A,,Scattered Clouds,300,2012-10-07 07:54:00
3:54 AM,28.9,25.0,85,30.13,10.0,Calm,Calm,-,N/A,,Partly Cloudy,0,2012-10-07 08:54:00
4:54 AM,28.9,25.0,85,30.13,10.0,Calm,Calm,-,N/A,,Mostly Cloudy,0,2012-10-07 09:54:00
5:54 AM,30.9,26.1,82,30.12,10.0,Calm,Calm,-,N/A,,Overcast,0,2012-10-07 10:54:00
6:54 AM,28.0,24.1,85,30.13,10.0,Calm,Calm,-,N/A,,Scattered Clouds,0,2012-10-07 11:54:00
7:54 AM,33.1,27.0,78,30.13,10.0,Calm,Calm,-,N/A,,Clear,0,2012-10-07 12:54:00
8:54 AM,36.0,28.0,73,30.12,10.0,West,4.6,-,N/A,,Clear,260,2012-10-07 13:54:00
9:54 AM,41.0,24.1,51,30.11,10.0,WNW,10.4,-,N/A,,Clear,290,2012-10-07 14:54:00
10:54 AM,43.0,21.9,43,30.09,10.0,West,11.5,21.9,N/A,,Clear,260,2012-10-07 15:54:00
11:54 AM,45.0,19.9,37,30.08,10.0,West,10.4,-,N/A,,Clear,260,2012-10-07 16:54:00
12:54 PM,48.0,19.9,33,30.06,10.0,SW,10.4,17.3,N/A,,Partly Cloudy,220,2012-10-07 17:54:00
1:54 PM,48.9,16.0,27,30.03,10.0,West,12.7,-,N/A,,Partly Cloudy,260,2012-10-07 18:54:00
2:54 PM,50.0,16.0,26,30.02,10.0,West,10.4,18.4,N/A,,Clear,270,2012-10-07 19:54:00
3:54 PM,50.0,14.0,24,30.00,10.0,West,13.8,17.3,N/A,,Clear,280,2012-10-07 20:54:00
4:54 PM,48.9,14.0,25,30.00,10.0,West,8.1,-,N/A,,Clear,280,2012-10-07 21:54:00
5:54 PM,46.0,15.1,29,29.99,10.0,SW,4.6,-,N/A,,Clear,220,2012-10-07 22:54:00
7:54 PM,36.0,17.1,46,30.01,10.0,SSW,4.6,-,N/A,,Clear,200,2012-10-08 00:54:00
8:54 PM,39.9,16.0,38,30.01,10.0,SW,5.8,-,N/A,,Clear,220,2012-10-08 01:54:00
9:54 PM,39.0,16.0,39,30.00,10.0,SSW,5.8,-,N/A,,Clear,210,2012-10-08 02:54:00
10:54 PM,39.0,16.0,39,29.99,10.0,SSW,6.9,-,N/A,,Clear,210,2012-10-08 03:54:00
11:54 PM,34.0,17.1,50,29.99,10.0,South,4.6,-,N/A,,Clear,170,2012-10-08 04:54:00